Location: Trois-Rivi�res
(46.3500°N, 72.5500°W)
Time: 20:27:27
(UTC-04:00)

Cosmos 1544 - Visible Passes

Search period start: 27 August 2015 00:00
Search period end: 06 September 2015 00:00
Orbit: 488 x 509 km, 82.5° (Epoch: 27 August)

Date Brightness Start Highest point End Pass type
(mag) Time Alt. Az. Time Alt. Az. Time Alt. Az.
27 Aug 6.1 01:36:44 15° NNW 01:36:44 15° NNW 01:37:28 10° N visible
28 Aug 6.2 01:16:35 14° N 01:16:35 14° N 01:17:15 10° N visible
29 Aug 6.3 00:56:26 14° N 00:56:26 14° N 00:56:58 10° N visible
30 Aug 6.4 00:36:16 12° N 00:36:16 12° N 00:36:37 10° N visible
31 Aug 6.4 00:16:05 11° NNE 00:16:05 11° NNE 00:16:11 10° NNE visible
